Location: Dumpton Point
(51.3500°N, 1.4433°E)
Time: 14:45:59
(UTC+00:00)

Transit 2A Rocket - All Passes

Search period start: 23 April 2021 00:00
Search period end: 03 May 2021 00:00
Orbit: 594 x 908 km, 66.7° (Epoch: 22 April)

Date Brightness Start Highest point End Pass type
(mag) Time Alt. Az. Time Alt. Az. Time Alt. Az.
23 Apr - 13:48:06 10° S 13:51:48 26° ESE 13:55:25 10° ENE daylight
23 Apr - 15:29:48 10° WSW 15:34:06 50° NW 15:38:19 10° NNE daylight
23 Apr - 17:15:01 10° WNW 17:17:38 15° NNW 17:20:15 10° NNE daylight
23 Apr - 19:00:46 10° NNW 19:02:03 11° N 19:03:21 10° NNE daylight
23 Apr - 20:42:55 10° NNW 20:46:17 21° NNE 20:49:45 10° E visible
23 Apr - 22:24:58 10° NW 22:29:26 83° NE 22:34:12 10° SE visible
24 Apr - 00:08:35 10° WNW 00:11:27 17° WSW 00:14:26 10° SSW visible
24 Apr - 13:06:49 10° SSE 13:09:27 16° ESE 13:12:03 10° ENE daylight
24 Apr - 14:46:59 10° SW 14:51:25 80° NW 14:55:45 10° NE daylight
24 Apr - 16:31:23 10° WNW 16:34:37 20° NNW 16:37:49 10° NNE daylight
24 Apr - 18:17:39 10° NNW 18:18:52 11° N 18:20:06 10° NNE daylight
24 Apr - 20:00:29 10° NNW 20:03:17 16° NNE 20:06:09 10° ENE visible
24 Apr - 21:42:24 10° NNW 21:46:46 53° NE 21:51:23 10° SE visible
24 Apr - 23:25:17 10° WNW 23:29:05 27° WSW 23:33:06 10° S visible
25 Apr - 14:04:28 10° SSW 14:08:49 62° ESE 14:13:06 10° NE daylight
25 Apr - 15:47:58 10° W 15:51:41 26° NW 15:55:22 10° NNE daylight
25 Apr - 17:34:04 10° NNW 17:35:43 12° N 17:37:21 10° NNE daylight
25 Apr - 19:18:01 10° NNW 19:20:12 13° NNE 19:22:25 10° NE daylight
25 Apr - 20:59:54 10° NNW 21:03:59 35° NE 21:08:18 10° ESE visible
25 Apr - 22:42:21 10° NW 22:46:37 44° WSW 22:51:12 10° S visible
26 Apr - 13:22:16 10° S 13:26:20 36° ESE 13:30:18 10° NE daylight
26 Apr - 15:04:44 10° WSW 15:08:50 38° NW 15:12:54 10° NNE daylight
26 Apr - 16:50:22 10° NW 16:52:35 14° NNW 16:54:49 10° NNE daylight
26 Apr - 18:35:28 10° NNW 18:37:04 12° N 18:38:41 10° NNE daylight
26 Apr - 20:17:26 10° NNW 20:21:08 25° NE 20:24:59 10° E visible
26 Apr - 21:59:36 10° NW 22:04:05 73° SW 22:08:52 10° SSE visible
26 Apr - 23:44:15 10° W 23:45:55 12° WSW 23:47:37 10° SW visible
27 Apr - 12:40:32 10° SSE 12:43:55 22° ESE 12:47:15 10° ENE daylight
27 Apr - 14:21:44 10° SW 14:26:05 59° NW 14:30:22 10° NNE daylight
27 Apr - 16:06:40 10° WNW 16:09:31 17° NNW 16:12:22 10° NNE daylight
27 Apr - 17:52:40 10° NNW 17:53:53 11° N 17:55:08 10° NNE daylight
27 Apr - 19:35:00 10° NNW 19:38:12 19° NNE 19:41:30 10° ENE daylight
27 Apr - 21:17:00 10° NW 21:21:28 71° NE 21:26:14 10° SE visible
27 Apr - 23:00:17 10° WNW 23:03:36 20° WSW 23:07:05 10° SSW visible
28 Apr - 11:59:40 10° SE 12:01:37 13° ESE 12:03:31 10° E daylight
28 Apr - 13:39:02 10° SW 13:43:26 86° SE 13:47:47 10° NE daylight
28 Apr - 15:23:07 10° W 15:26:31 22° NNW 15:29:55 10° NNE daylight
28 Apr - 17:09:22 10° NNW 17:10:43 11° N 17:12:05 10° NNE daylight
28 Apr - 18:52:33 10° NNW 18:55:09 15° NNE 18:57:50 10° ENE daylight
28 Apr - 20:34:27 10° NNW 20:38:45 45° NE 20:43:19 10° ESE visible
28 Apr - 22:17:09 10° NW 22:21:11 32° WSW 22:25:30 10° S visible
29 Apr - 12:56:37 10° SSW 13:00:53 51° ESE 13:05:05 10° NE daylight
29 Apr - 14:39:46 10° W 14:43:37 30° NW 14:47:28 10° NNE daylight
29 Apr - 16:25:43 10° NW 16:27:34 12° NNW 16:29:25 10° NNE daylight
29 Apr - 18:10:04 10° NNW 18:12:04 13° NNE 18:14:05 10° NE daylight
29 Apr - 19:51:58 10° NNW 19:55:58 31° NE 20:00:09 10° ESE visible
29 Apr - 21:34:18 10° NW 21:38:42 53° WSW 21:43:25 10° SSE visible
30 Apr - 12:14:34 10° S 12:18:26 30° ESE 12:22:13 10° NE daylight
30 Apr - 13:56:37 10° WSW 14:00:48 44° NW 14:04:58 10° NNE daylight
30 Apr - 15:42:00 10° NW 15:44:27 15° NNW 15:46:55 10° NNE daylight
30 Apr - 17:27:26 10° NNW 17:28:54 11° N 17:30:24 10° NNE daylight
30 Apr - 19:09:31 10° NNW 19:13:04 23° NNE 19:16:46 10° E daylight
30 Apr - 20:51:37 10° NW 20:56:07 86° WSW 21:00:58 10° SE visible
30 Apr - 22:35:33 10° WNW 22:38:04 15° WSW 22:40:41 10° SW visible
01 May - 11:33:04 10° SSE 11:36:03 18° ESE 11:39:00 10° ENE daylight
01 May - 13:13:43 10° SW 13:18:05 70° NW 13:22:26 10° NE daylight
01 May - 14:58:22 10° WNW 15:01:24 18° NNW 15:04:28 10° NNE daylight
01 May - 16:44:29 10° NNW 16:45:44 11° N 16:47:00 10° NNE daylight
01 May - 18:27:03 10° NNW 18:30:05 18° NNE 18:33:13 10° ENE daylight
01 May - 20:09:02 10° NNW 20:13:28 60° NE 20:18:14 10° SE visible
01 May - 21:52:03 10° WNW 21:55:43 24° WSW 21:59:36 10° SSW visible
02 May - 10:53:18 10° ESE 10:53:46 10° ESE 10:54:15 10° E daylight
02 May - 12:31:06 10° SSW 12:35:29 72° SE 12:39:47 10° NE daylight
02 May - 14:14:52 10° W 14:18:26 24° NNW 14:22:01 10° NNE daylight
02 May - 16:01:02 10° NNW 16:02:33 12° N 16:04:05 10° NNE daylight
02 May - 17:44:36 10° NNW 17:47:02 14° NNE 17:49:31 10° NE daylight
02 May - 19:26:31 10° NNW 19:30:44 40° NE 19:35:14 10° ESE daylight
02 May - 21:09:03 10° NW 21:13:17 39° WSW 21:17:49 10° S visible
